Regional Weather Roundup
Issued by NWS Midland/Odessa, TX

Skip options and go directly to product.
Home | Oldest Version | Next Version | Current Version | All | Text Only | Save Text | Print | Product List | Glossary On

Skip product version selection by date and time.   
301
ASUS44 KMAF 201502
RWRMAF
MIDLAND AREA WEATHER ROUNDUP
NATIONAL WEATHER SERVICE MIDLAND TX
1000 AM CDT MON OCT 20 2014

...IN SOUTHWEST TEXAS AND SOUTHEAST NEW MEXICO...

CITY           SKY/WX    TMP DP  RH WIND       PRES   REMARKS
ALPINE         CLOUDY    62  54  74 N5        30.19R
ANDREWS        FAIR      60  56  87 SE3       30.14R
ARTESIA        NOT AVBL
BIG SPRING     SUNNY     65  59  80 SE5       30.15S
CARLSBAD       CLOUDY    63  57  81 NE3       30.12R
DRYDEN           N/A     66  63  90 E8        30.07R
FORT STOCKTON  PTSUNNY   66  60  81 SE3       30.10R
GUAD PASS      NOT AVBL
HOBBS          SUNNY     61  59  94 E5        30.15R
MARFA          CLOUDY    57  55  94 N6        30.16R
MIDLAND AIRPK  MOSUNNY   65  57  76 E3        30.13S
MIDLAND INTL   CLOUDY    64  57  78 SE7       30.12R
ODESSA         CLOUDY    63  56  78 E6        30.13R
PECOS          CLOUDY    62  57  85 NW3       30.09R
PRESIDIO       CLOUDY    63  59  86 NW6       30.10R
SEMINOLE       FOG       57  56  99 NE3       30.16R VSB 3/4
SNYDER         MOSUNNY   62  57  83 S6        30.15R
WINK           CLOUDY    66  59  78 E12       30.09R
$$
...OTHER STATIONS IN TEXAS...

CITY           SKY/WX    TMP DP  RH WIND       PRES   REMARKS
ABILENE        SUNNY     67  60  78 S7        30.13R
AMARILLO       SUNNY     62  56  80 W9        30.14R
AUSTIN         MOSUNNY   68  64  87 NE6       30.09R FOG
BROWNSVILLE    SUNNY     82  70  66 NE5       29.96R
CORPUS CHRISTI LGT RAIN  74  70  87 S7        30.01R
DALLAS FTW     MOSUNNY   67  57  70 S6        30.11R
DEL RIO        CLOUDY    70  66  87 E12       30.06R
EL PASO        FAIR      60  54  80 N9        30.10R
HOUSTON INT    MOSUNNY   70  58  65 NE6       30.07R
LUBBOCK        MOSUNNY   62  57  83 SW3       30.15R
SAN ANGELO     MOSUNNY   65  57  75 S5        30.13R
SAN ANTONIO    MOSUNNY   72  64  76 E8        30.09R
WACO           MOSUNNY   66  60  81 CALM      30.11R
WICHITA FALLS  NOT AVBL
$$
...OTHER LOCATIONS IN NEW MEXICO...

CITY           SKY/WX    TMP DP  RH WIND       PRES   REMARKS
ALAMAGORDO     NOT AVBL
ALBUQUERQUE    MOSUNNY   54  42  64 N6        30.21R
CANNON AFB     SUNNY     52  52 100 NW6       30.14S
CLOVIS         SUNNY     57  55  94 W5        30.19R
HOLLOMAN AFB   MOSUNNY   56  56 100 W5        30.12R
ROSWELL        CLOUDY    57  52  83 N7        30.14S
RUIDOSO        CLOUDY    50  46  87 S7        30.26R
SANTA FE       SUNNY     51  40  65 N12       30.25R
TRUTH OR CONSE FAIR      56  52  86 N7        30.16R
TUCUMCARI      SUNNY     61  48  62 W5        30.16R
$$

USA.gov is the U.S. government's official web portal to all federal, state and local government web resources and services.